weather.gov     
National Weather Service

Weather Roundup
NWS Homepage
This page is being discontinued on March 12, 2014.
The same data is available at this site. Please update your bookmarks.
Thank you, and we apologize for the inconvenience.
Please send an email to SR-SRH.Webmaster@noaa.gov with any concerns.


Current Version
Previous Version:    01  02  03  04  05  06  07  08  09  10  11  12  13  14  15  16  17  18  19  20  21  22  23  24  25  26  27  28  29  30  
   31  32  33  34  35  36  37  38  39  40  41  42  43  44  45  46  47  48  49  50  51  52  53  54  55  56  57  58  59  60  
[Printable]
523
ASUS44 KCRP 260010
HRRCRP

SOUTH TEXAS REGIONAL WEATHER ROUNDUP
NATIONAL WEATHER SERVICE CORPUS CHRISTI TX
700 PM CDT FRI JUL 25 2014


TXZ229>244-260100-
...CORPUS CHRISTI AREA OBSERVATIONS...

CITY           SKY/WX    TMP DP  RH WIND       PRES   REMARKS
CORPUS CHRISTI MOSUNNY   86  75  69 SE17      29.94S HX  95
NAS CORPUS CHR MOSUNNY   87  77  72 SE16      29.95R HX  99
ROCKPORT       MOSUNNY   87  76  69 SE14G21   29.94S HX  97
KINGSVILLE NAS MOSUNNY   88  75  65 SE17      29.93R HX  97
ALICE          PTSUNNY   84  72  67 SE12      29.92S
FALFURRIAS     PTSUNNY   88  72  59 E14G21    29.89R HX  94
$$

...VICTORIA AREA OBSERVATIONS...

CITY           SKY/WX    TMP DP  RH WIND       PRES   REMARKS
VICTORIA       SUNNY     91  71  51 S16       29.95R HX  97
BEEVILLE       FAIR      91  68  46 SE13      29.94R HX  95
PLEASANTON     MOSUNNY   90  68  47 SE13G22   29.93R HX  94
SAN ANTONIO    MOSUNNY   94  66  39 VRB5      29.93F HX  97
$$

...LAREDO AREA OBSERVATIONS...

CITY           SKY/WX    TMP DP  RH WIND       PRES   REMARKS
LAREDO         PTSUNNY   87  71  58 NE10      29.91F HX  92
COTULLA        PTSUNNY   83  74  74 S7        29.92F
DEL RIO        PTSUNNY   99  63  30 SE9       29.87R HX 101
MCALLEN        SUNNY     95  62  33 SE18G29   29.90S HX  96
HEBBRONVILLE   CLOUDY    89  72  57 NE14      29.91S HX  95
$$

...OTHER TEXAS OBSERVATIONS...

CITY           SKY/WX    TMP DP  RH WIND       PRES   REMARKS
BROWNSVILLE    SUNNY     89  73  59 SE21      29.95R HX  97
HOUSTON        MOSUNNY   90  73  57 SE14      29.95R HX  98
COL. STATION   SUNNY     91  70  49 SE7       29.94S HX  96
AUSTIN         MOSUNNY   96  66  37 SE8       29.92S HX  99
WACO           SUNNY     95  66  38 S9        29.92S HX  98
FORT WORTH     MOSUNNY   99  62  29 S9        29.90S HX 100
WICHITA FALLS  SUNNY     98  58  26 S15       29.86F HX  97
LUBBOCK        MOSUNNY   97  47  18 SE14      29.98F HX  93
EL PASO        MOSUNNY   98  44  15 VRB5      29.98F HX  94
$$

...MARINE OBSERVATIONS...

STATION/POSITION TIME  SKY/WX   TEMP    WIND        PRES    VSBY  WAVE   SWELL
                                AIR SEA DIR/SP/G                  HT/PER HT/PER
                 (UTC)          (F)     (DEG/KT/KT) (MB)    (MI)  (FT/S) (FT/S)
PORT ARANSAS     2300            83 89  140/ 11/ 12 1015.1F
BUOY 90 E PORT A 0000            84 85  150/  8/ 10 1015.7R         2/ 4   2/ 4
BUOY 45 SE BAFFI 0000            84 83  150/ 14/ 16 1014.2R         2/ 3
BUOY 200 E PT IS 0000            84 86  140/  6/  8 1016.0F         1/ 8   2/ 8
BUOY 15 E GALVES 2300            85     160/ 10     1015.0F
$$




U.S. Dept. of Commerce
NOAA National Weather Service
1325 East West Highway
Silver Spring, MD 20910
E-mail: w-nws.webmaster@noaa.gov
Page last modified: May 16, 2007
NATIONAL WEATHER SERVICE: for Safety, for Work, for Fun - FOR LIFE